Location: Vancouver
(49.2500°N, 123.1330°W)
Time: 05:26:56
(UTC-07:00)

Daily predictions for brighter satellites

Satellite Brightness Start Highest point End
(mag) Time Altitude Azimuth Time Altitude Azimuth Time Altitude Azimuth
Cosmos 1269 Rocket 4.1 00:02:13 10° NNW 00:07:34 74° ENE 00:10:47 24° SSE
ATLAS 2AS CENTAUR R/B 3.4 00:04:20 20° S 00:09:13 45° ESE 00:16:47 10° NE
Cosmos 990 Rocket 3.9 00:13:12 20° SSW 00:16:50 89° ESE 00:22:02 10° NNE
Lacrosse 4 Rocket 1.9 00:15:16 10° NNW 00:19:39 61° NE 00:22:17 23° SE
Cosmos 2221 Rocket 3.6 00:19:23 10° N 00:23:58 85° W 00:26:10 31° S
CZ-4B R/B 1.8 00:25:04 35° SE 00:26:19 59° ENE 00:29:45 10° N
CZ-4C R/B 4.0 00:21:09 10° NW 00:27:24 40° NNE 00:34:21 10° E
Cosmos 2074 Rocket 4.5 00:25:55 24° SSE 00:29:29 49° E 00:35:31 10° NNE
Landsat 5 3.9 00:27:29 28° SE 00:29:43 63° ENE 00:34:13 10° N
USA 238 DEB 4.2 00:23:21 10° NW 00:30:20 60° NE 00:37:16 10° ESE
USA 238 4.2 00:23:27 10° NW 00:30:26 60° NE 00:37:22 10° ESE
Cosmos 1626 3.3 00:28:37 19° SW 00:30:54 37° WNW 00:34:27 10° N
ATLAS 3B R/B 2.7 00:23:48 10° NW 00:30:58 84° SW 00:35:37 22° SE
Cosmos 1703 Rocket 3.7 00:27:28 10° NNW 00:31:49 67° W 00:33:47 31° S
Aureole 2 Rocket 3.8 00:29:38 10° N 00:32:15 27° ENE 00:33:34 20° E
H-2A R/B 2.8 00:28:30 10° NNE 00:32:34 53° ESE 00:34:10 33° SSE
NOSS 3-1 (C) 4.0 00:29:12 10° WSW 00:35:13 63° NW 00:42:01 10° NE
Cosmos 1709 Rocket 4.0 00:31:46 22° SSW 00:35:57 75° W 00:42:05 10° N
BREEZE-M DEB (TANK) 2.9 00:36:57 30° ESE 00:36:57 30° ESE 00:40:14 10° ENE
Cosmos 2333 Rocket 3.2 00:35:12 10° NW 00:40:20 34° WSW 00:43:12 22° SSW
Cosmos 1048 Rocket 4.0 00:35:20 10° NNW 00:40:41 77° WSW 00:43:30 29° SSE
Cosmos 2227 Rocket 2.2 00:36:30 18° SSW 00:40:46 82° WNW 00:46:30 10° NNE
Okean 1-7 2.9 00:36:36 10° N 00:40:55 84° W 00:42:42 35° S
Cosmos 1125 Rocket 3.6 00:39:31 28° S 00:42:19 68° ESE 00:47:37 10° NNE
Cosmos 1689 Rocket 2.2 00:43:17 48° SSE 00:44:08 89° W 00:47:27 10° NNW
Cosmos 1455 4.4 00:41:56 10° NW 00:44:31 18° W 00:46:25 13° WSW
SL-16 R/B 2.2 00:42:42 10° NNW 00:48:22 69° WSW 00:51:21 29° S
Cosmos 2181 Rocket 4.4 00:42:42 10° NNW 00:48:53 55° W 00:52:48 23° SSW
CZ-4C R/B 3.5 00:48:03 36° SW 00:48:59 46° W 00:52:26 10° NNW
Meteor 1-26 Rocket 4.4 00:50:31 10° NNW 00:56:02 65° W 00:59:02 28° S
COSMOS 2455 3.1 00:55:49 10° NW 01:01:41 55° WSW 01:04:42 28° S
SeaSat 1 4.0 01:00:57 18° SW 01:02:48 22° WSW 01:06:37 10° NW
USA 234 3.5 00:57:18 10° ESE 01:03:49 73° NNE 01:10:21 10° NW
Cosmos 2184 Rocket 4.0 01:02:44 27° S 01:06:20 84° E 01:12:33 10° N
Helios 1A Rocket 3.0 01:03:58 10° NNE 01:08:08 69° ESE 01:09:41 37° S
Cosmos 2297 Rocket 2.4 01:04:32 20° SW 01:08:36 72° WNW 01:14:17 10° NNE
Cosmos 1607 4.3 01:03:28 10° NW 01:09:37 62° NE 01:15:42 10° SE
NOSS 2-3 (C) 4.5 01:08:56 31° S 01:10:54 45° ESE 01:16:27 10° NE
FALCON 9 R/B 4.0 01:03:50 10° WSW 01:11:46 20° SW 01:12:16 20° SSW
Cosmos 1932 4.5 01:06:11 10° NW 01:12:36 89° SW 01:17:24 19° SE
Cosmos 1606 4.1 01:11:09 10° N 01:14:37 32° ENE 01:16:31 20° ESE
Cosmos 1943 4.3 01:09:25 10° NNW 01:14:50 42° NE 01:20:11 10° ESE
Cosmos 2219 Rocket 4.2 01:12:31 10° WNW 01:15:17 14° W 01:17:49 11° SW
ERBS 2.3 01:16:04 50° S 01:16:41 61° SE 01:20:07 10° ENE
Cosmos 921 Rocket 4.5 01:16:07 20° SE 01:17:25 23° E 01:20:44 10° NE
Cosmos 44 Rocket 4.0 01:16:16 30° SSE 01:18:10 42° ESE 01:23:05 10° NE
CZ-2C R/B 2.8 01:16:07 10° NNE 01:21:20 60° E 01:23:52 29° S
CZ-2C R/B 3.6 01:17:40 22° SSE 01:21:26 66° ENE 01:27:02 10° N
Cosmos 1603 3.7 01:16:00 10° NNW 01:21:42 90° WSW 01:25:14 24° SSE
Sich 1 Rocket 4.4 01:20:33 27° SE 01:22:27 41° E 01:26:41 10° NNE
Cosmos 372 Rocket 4.0 01:22:57 28° SSW 01:25:46 89° WNW 01:31:03 10° NNE
Meteor 1-10 Rocket 4.3 01:20:38 10° NNW 01:26:35 89° ENE 01:30:01 27° S
SL-08 ROCKET BODY 4.5 01:24:29 27° SSW 01:28:07 79° W 01:34:20 10° N
ASTEX 1 3.7 01:23:22 10° N 01:28:10 56° WNW 01:30:41 27° SW
Cosmos 158 Rocket 4.2 01:22:58 10° NNW 01:28:13 58° WSW 01:30:36 31° S
NOSS 3-2 (A) 4.3 01:22:26 10° NW 01:29:38 64° NE 01:37:29 10° ESE
Meteor 2-10 Rocket 3.7 01:25:48 10° NNW 01:31:16 71° W 01:34:13 29° S
Cosmos 389 Rocket 4.1 01:28:36 10° NW 01:31:33 24° W 01:32:23 22° WSW
NOSS 2-3 (D) 4.2 01:29:31 30° SSW 01:31:54 61° SE 01:37:41 10° NE
PSLV R/B 4.2 01:31:16 29° SE 01:33:12 64° ENE 01:37:14 10° N
Meteor 2-3 Rocket 3.9 01:30:19 25° SSW 01:33:41 67° WNW 01:39:25 10° N
MOS 1-B Rocket 3.9 01:32:00 28° S 01:35:07 65° WSW 01:40:43 10° NNW
Cosmos 1892 2.6 01:35:28 40° SSW 01:36:44 79° W 01:40:33 10° N
Cosmos 2251 Rocket 3.6 01:32:24 10° NNW 01:37:42 64° WSW 01:40:17 30° S
Coronas F rocket 1.2 01:37:54 70° SE 01:38:01 72° E 01:40:44 10° NNE
Cosmos 1782 2.7 01:34:53 10° NNW 01:38:52 82° W 01:40:18 38° S
ALOS 2 4.2 01:37:54 18° WSW 01:39:30 22° W 01:42:58 10° NW
Cosmos 2237 Rocket 4.2 01:38:23 10° WNW 01:41:01 13° W 01:43:17 11° WSW
Cosmos 1238 Rocket 3.1 01:36:38 10° N 01:41:15 68° ENE 01:42:56 32° SSE
Cosmos 1733 Rocket 3.1 01:43:53 33° SSW 01:45:51 74° W 01:50:20 10° N
Cosmos 1340 Rocket 2.9 01:49:08 35° SW 01:50:38 64° WNW 01:54:33 10° N
Geosat 4.4 01:46:34 10° NNE 01:51:32 61° NW 01:55:00 20° SW
Cosmos 1378 Rocket 3.5 01:51:46 10° N 01:56:12 84° E 01:58:19 30° SSE
Lacrosse 4 Rocket 3.1 01:54:50 10° WNW 01:57:59 19° WSW 01:58:37 19° WSW
CZ-4B R/B 3.9 01:58:49 11° WSW 01:59:29 12° W 02:00:47 10° WNW
ATLAS 2AS CENTAUR R/B 3.5 01:52:26 10° WSW 02:00:08 62° NW 02:08:15 10° NE
Okean 3 3.5 02:02:05 10° N 02:06:24 82° E 02:08:39 28° SSE
Okean 2 Rocket 3.8 02:04:18 24° SSE 02:06:42 46° E 02:11:02 10° NNE
Aureole 2 Rocket 4.0 02:05:39 10° WNW 02:07:41 18° W 02:07:41 18° W
Nadezhda 3 Rocket 4.3 02:03:05 10° NNW 02:09:04 53° W 02:12:40 24° SSW
Cosmos 1825 2.5 02:08:01 31° SSE 02:09:35 57° E 02:13:20 10° NNE
Cosmos 1356 Rocket 3.8 02:12:40 28° SW 02:14:26 50° WNW 02:18:25 10° N
Meteor 2-13 Rocket 4.5 02:11:57 24° S 02:15:49 77° E 02:21:58 10° NNE
CZ-4C R/B 2.8 02:09:37 10° NW 02:16:33 75° SW 02:24:14 10° SSE
Cosmos 1782 Rocket 3.6 02:16:41 28° S 02:18:54 71° E 02:23:17 10° NNE
ATLAS 3B R/B 4.0 02:15:52 10° WNW 02:20:38 20° WSW 02:22:49 17° SW
USA 238 DEB 4.2 02:14:39 10° NW 02:21:07 40° WSW 02:25:02 22° S
USA 238 4.2 02:14:45 10° NW 02:21:13 41° WSW 02:25:10 22° S
BREEZE-M TANK 2.4 02:17:04 10° W 02:21:59 44° SSW 02:24:28 10° ESE
Cosmos 1408 2.6 02:20:57 33° S 02:22:34 81° E 02:26:22 10° NNE
Cosmos 1862 3.3 02:21:31 32° SSW 02:23:19 81° WNW 02:27:22 10° N
Elektron 3 4.4 02:22:06 10° NW 02:24:56 61° NE 02:28:53 10° ESE
Cosmos 1727 Rocket 4.2 02:18:43 10° N 02:24:59 70° ENE 02:30:13 15° SSE
Meteor 1-27 Rocket 4.1 02:19:21 10° NNW 02:25:06 54° W 02:28:29 24° SSW
Cosmos 2227 Rocket 4.4 02:21:34 10° W 02:25:44 21° NW 02:29:56 10° N
PSLV R/B 3.8 02:22:34 10° NNE 02:26:46 57° E 02:29:02 25° S
Cosmos 1184 Rocket 4.2 02:25:19 21° SE 02:26:55 32° E 02:29:59 10° NNE
COSMOS 2406 4.4 02:24:58 10° NNW 02:30:30 44° NE 02:36:00 10° SE
SL-16 R/B 4.2 02:29:38 10° WNW 02:31:24 11° W 02:33:11 10° WSW
Iridium 4 Rocket 3.9 02:27:09 10° N 02:31:31 51° E 02:35:20 15° SSE
Cosmos 2263 Rocket 2.8 02:31:41 21° S 02:35:16 48° ESE 02:40:43 10° NE
Cosmos 44 3.5 02:34:03 24° SSW 02:37:23 78° SE 02:42:53 10° NE
Cosmos 1975 Rocket 3.3 02:33:48 10° NNW 02:38:07 55° W 02:40:23 26° SSW
USA 234 3.5 02:40:51 10° SSE 02:47:05 46° SW 02:53:21 10° WNW
Cosmos 1908 Rocket 4.5 02:46:18 20° SW 02:48:41 36° WNW 02:52:44 10° N
Cosmos 1536 Rocket 3.8 02:45:36 10° N 02:49:57 68° ENE 02:53:39 14° SSE
Cosmos 1606 4.3 02:47:16 10° NW 02:50:18 22° W 02:51:38 19° WSW
BREEZE-M DEB (TANK) 3.5 02:38:00 10° WSW 02:51:02 73° SSE 02:54:45 10° E
Cosmos 2297 Rocket 4.4 02:49:46 10° W 02:53:41 19° NW 02:57:37 10° N
ERBS 4.1 02:50:33 10° W 02:53:43 32° NNW 02:56:53 10° NE
NOSS 3-2 (C) 4.0 02:47:48 10° NW 02:55:06 64° SW 03:02:59 10° SSE
Cosmos 921 Rocket 3.8 02:52:55 19° WSW 02:55:29 39° WNW 02:59:28 10° N
Cosmos 1190 Rocket 4.2 02:52:39 10° NNW 02:57:54 73° ENE 03:03:06 10° SSE
ATLAS 5 CENTAUR R/B 4.3 02:52:55 10° NW 02:57:57 31° NNE 03:03:19 10° E
Cosmos 1943 3.8 02:53:37 10° NW 02:58:52 39° WSW 03:02:25 19° SSW
Meteor 1-18 Rocket 4.4 02:53:35 10° N 02:59:14 77° ENE 03:04:56 10° SSE
Landsat 4 4.0 02:57:25 24° SSW 02:59:24 50° W 03:03:07 10° NNW
Cosmos 44 Rocket 4.4 02:54:57 11° WSW 02:59:45 43° NW 03:04:47 10° NNE
CENTAUR R/B 3.6 02:52:49 10° NW 03:00:19 61° NE 03:08:26 10° ESE
CZ-2C R/B 4.2 02:57:05 10° N 03:01:14 24° WNW 03:05:19 10° WSW
Cosmos 2151 Rocket 3.6 03:01:40 19° S 03:04:47 79° E 03:09:16 10° NNE
Cosmos 1371 Rocket 4.2 03:02:49 18° S 03:06:45 69° ESE 03:12:06 10° NNE
IRS-P3 4.2 03:02:00 10° NNE 03:07:24 85° ESE 03:11:33 17° SSW
Cosmos 2056 Rocket 4.0 03:04:13 16° S 03:08:18 54° ESE 03:13:26 10° NNE
SL-16 R/B 3.5 03:03:06 10° SE 03:09:02 48° ENE 03:15:00 10° N
Cosmos 2084 Rocket 3.9 03:06:28 15° WSW 03:09:27 48° NW 03:13:09 10° NE
SL-24 DEB 4.3 03:09:00 10° N 03:13:39 77° E 03:17:36 14° S
Cosmos 407 Rocket 3.5 03:11:28 10° NNW 03:16:39 83° ENE 03:21:50 10° SSE
SL-27 R/B 3.2 03:13:17 10° NNW 03:16:53 56° ENE 03:20:29 10° SE
SL-08 R/B 3.5 03:14:46 14° S 03:18:57 62° WSW 03:23:51 10° NNW
NOSS 3-2 (A) 4.4 03:13:35 10° NW 03:20:26 42° WSW 03:27:46 10° S
Cosmos 1242 Rocket 2.9 03:17:07 10° NNW 03:20:28 43° W 03:22:33 20° SSW
Cosmos 676 Rocket 4.3 03:15:43 10° NNW 03:20:55 70° ENE 03:26:05 10° SSE
NOSS 3-4 (A) 3.6 03:15:49 17° SW 03:21:02 83° SE 03:27:44 10° NE
NOSS 3-4 (C) 3.6 03:15:55 17° SW 03:21:08 82° SE 03:27:48 10° NE
Okean 1 Rocket 3.9 03:19:34 10° SSE 03:23:48 47° E 03:28:05 10° NNE
Okean 1 3.4 03:20:20 10° N 03:24:21 78° E 03:28:20 10° SSE
EO 1 Del DPAF 4.5 03:21:59 10° SE 03:25:40 43° ENE 03:29:24 10° N
Resurs 1-4 Rocket 3.6 03:21:05 10° NNE 03:25:49 31° E 03:30:30 10° SSE
GP-B 3.2 03:21:34 10° N 03:26:03 83° E 03:30:12 12° S
IRAS Rocket 4.3 03:22:15 10° NNE 03:27:46 77° WNW 03:32:29 15° SSW
Tiangong 1 2.6 03:29:01 18° S 03:29:01 18° S 03:30:58 10° SSE
RESURS DK-1 2.4 03:27:31 17° SSW 03:30:38 77° ESE 03:34:49 10° NNE
Cosmos 1867 4.1 03:25:57 10° NW 03:31:00 39° WSW 03:36:00 10° S
Cosmos 1812 2.7 03:29:55 10° NNW 03:33:50 72° W 03:37:32 11° S
AQUA 3.9 03:31:42 10° N 03:36:28 74° WNW 03:40:35 14° SSW
Cosmos 1821 Rocket 4.4 03:31:03 10° S 03:37:21 68° E 03:43:43 10° NNE
UNK 4.2 03:36:05 10° SSE 03:40:38 63° ENE 03:45:15 10° N
Meteor 1-20 Rocket 4.3 03:36:12 11° S 03:41:48 89° E 03:47:38 10° NNE
ERS-2 2.4 03:39:45 10° N 03:43:25 56° WNW 03:46:25 14° SSW
NPP 3.9 03:38:46 10° N 03:44:05 59° WNW 03:48:54 12° SW
CBERS 1 LM4 rocket 4.4 03:40:12 10° NNE 03:45:16 82° WNW 03:49:51 11° SSW
Cosmos 1825 4.5 03:43:36 10° W 03:45:37 14° WNW 03:47:39 10° NNW
Cosmos 1954 Rocket 4.0 03:45:07 10° NNW 03:50:20 88° WSW 03:55:31 10° SSE
Cosmos 1624 Rocket 4.2 03:48:43 13° SW 03:53:24 64° WNW 03:58:38 10° NNE
Cosmos 909 Rocket 4.3 03:50:14 12° SW 03:56:19 90° WNW 04:04:06 10° NE
ADEOS 3.6 03:51:20 10° NNE 03:56:34 74° WNW 04:01:46 10° SSW
Cosmos 1025 Rocket 3.3 03:55:15 10° N 03:59:33 72° E 04:03:50 10° SSE
COSMOS 2487 3.5 03:56:32 10° NNW 04:00:06 51° ENE 04:03:39 10° SE
USA 129 4.2 03:59:38 10° SE 04:01:26 23° ENE 04:03:13 10° NNE
USA 161 2.2 03:59:18 11° SSW 04:01:41 34° W 04:04:24 10° NNW
CZ-4C R/B 4.1 03:59:26 10° WNW 04:04:22 20° WSW 04:09:34 10° SSW
SME Rocket 2.9 04:01:58 10° SSE 04:05:42 85° WSW 04:09:56 10° NNW
ARIANE 5 R/B 2.5 04:03:20 10° NNE 04:08:22 89° ESE 04:13:22 10° SSW
Abrixas rocket 3.3 04:06:57 11° SW 04:09:49 32° SSE 04:12:51 10° E
CZ-2D R/B 2.4 04:05:58 10° NNE 04:11:24 71° ESE 04:16:52 10° S
Meteor 2-15 4.5 04:05:40 10° NNW 04:11:50 80° W 04:17:58 10° S
Cosmos 1452 Rocket 3.6 04:09:20 10° SSW 04:14:34 84° ESE 04:19:53 10° NNE
COSMOS 2406 3.8 04:09:29 10° NW 04:14:48 38° WSW 04:20:03 10° S
Cosmos 1844 4.4 04:10:50 10° S 04:16:18 52° ESE 04:21:52 10° NE
MTI 3.8 04:13:12 10° SSE 04:16:31 83° WSW 04:19:51 10° NNW
Cosmos 1844 Rocket 3.0 04:12:13 10° SSW 04:17:51 69° ESE 04:23:29 10° NNE
Cosmos 614 Rocket 4.3 04:13:01 10° NNW 04:18:15 73° ENE 04:23:23 10° SSE
Cosmos 2263 Rocket 3.3 04:14:09 10° WSW 04:19:22 36° NW 04:24:37 10° NNE
Cosmos 1602 3.7 04:17:23 10° SSW 04:21:15 82° WNW 04:25:07 10° N
Cosmos 1536 3.0 04:20:26 10° S 04:24:31 79° E 04:28:36 10° NNE
Cosmos 1300 Rocket 4.3 04:22:16 10° SW 04:26:18 37° WNW 04:30:23 10° N
Cosmos 2278 Rocket 3.1 04:26:37 10° S 04:32:00 47° ESE 04:37:26 10° NE
Timation 2 Rocket 4.1 04:27:04 10° NNW 04:33:21 83° ENE 04:39:24 10° SSE
